星链-5236 (STARLINK-5236 )

导读

STARLINK-5236是美国太空探索技术公司(SpaceX)星链(Starlink)互联网星座的卫星,于2023年1月19日发射入轨,属于星链低轨通信卫星群中的一员,承担全球范围内高速互联网接入服务的组网任务,为偏远地区、海上空中等场景提供网络覆盖,助力星链星座完成全球通信网络布局。

Basic Information
目录编号:
55274
目录名称:
STARLINK-5236
国际标识:
2023-010F
轨道中心:
EARTH
卫星名称:
星链-5236
卫星全名:
星链-5236 (STARLINK-5236 )
卫星状态:
在轨 (已飞行1332 天)
发射日期:
2023-01-19 UTC
国别 :
美国 (US)
星等 :
--
This satellite is enrolled in the Space Conjunction Data Service (SCDS) and the current flight risk assessment level is: No High Risk
Orbit Information
数据来源 国际轨道数据 AOE轨道数据
星历时间 2026-09-12T11:21:48+0800
11小时前
查看轨道信息
2026-09-07T01:00:00+0800
5天前
查看轨道信息
半长轴 6950.179km 6950.231km
偏心率 0.0003703 0.0003621
轨道倾角 69.998° 69.999°
近地点辐角 267.219° 272.358°
升交点赤经 274.510° 288.207°
平近点角 92.855° 316.799°
近地点 569.468km 569.577km
远地点 574.616km 574.611km
周期 96.107分钟 96.108分钟
每日圈数 14.983345 14.983179
Detailed Information
固有亮度:
5
最大亮度:
2.5
卫星平台:
Starlink v1.5
覆盖范围:
全球
运营商:
太空探索技术公司
运营商所在国:
美国
制造商(研发单位):
太空探索技术公司
制造商所在国:
美国
使用方式:
暂无
Satellite Introduction
星链(Starlink)计划是由太空探索技术公司(SpaceX)提出的一个巨型低轨卫星互联网星座项目,计划在2019年至2024年间在太空搭建由约1.2万颗卫星组成的“星链”网络,其中1584颗将部署在地球上空550千米处的近地轨道,并从2020年开始工作。该卫星仍在工作。
2D Orbit Map
3D Orbit Map
Orbit Altitude Analysis Chart
Orbit Inclination Analysis Chart
Orbit Comprehensive Analysis Chart
View Comprehensive Chart
Conjunction Data List
Event ID Objects TCA Miss Dist (km) Collision Risk Probability Collision Risk Index (CRI) Action
CDM_260914-081505-527406-174223
OBJECT H (61742)
2026-09-14T
08:15:04+0000
2.401 km
极远距离
1.913147E-6 低风险 0.41
Miss Distance Evolution Trend with All Objects
Collision Probability Evolution Trend with All Objects